Weather History for KAZO - August, 2013

Change the Weather History Date:

Thursday, August 29, 2013

  Actual Average Record
Temperature  
Mean Temperature 75 °F 69 °F  
Max Temperature 87 °F 79 °F 97 °F (1953)
Min Temperature 63 °F 58 °F 41 °F (1965)
Degree Days  
Heating Degree Days 0 1  
Month to date heating degree days 20 5  
Since 1 June heating degree days 76 58  
Since 1 July heating degree days 37 10  
Cooling Degree Days 10 4  
Month to date cooling degree days 144 177  
Year to date cooling degree days 604 603  
Since 1 June cooling degree days 524 562  
Growing Degree Days 26 (Base 50)    
Moisture  
Dew Point 65 °F    
Average Humidity 73    
Maximum Humidity 100    
Minimum Humidity 46    
Precipitation  
Precipitation 0.00 in 0.13 in 2.16 in (1977)
Month to date precipitation 4.20 3.55  
Year to date precipitation 29.09 23.27  
Sea Level Pressure  
Sea Level Pressure 30.05 in    
Wind  
Wind Speed 1 mph (East)    
Max Wind Speed 7 mph    
Max Gust Speed -    
Visibility 5 miles    
Events Fog    
T = Trace of Precipitation, MM = Missing Value Source: NWS Daily Summary

Daily Weather History Graph

Daily Weather History Graph

Search for Another Location

Airport or City:

Trip Planner

Search our weather history database for the weather conditions in past years. The results will help you decide how hot, cold, wet, or windy it might be!

Date:

Astronomy

Aug. 29, 2013 Rise Set
Actual Time 7:04 AM EDT 8:20 PM EDT
Civil Twilight 6:35 AM EDT 8:49 PM EDT
Nautical Twilight 6:00 AM EDT 9:24 PM EDT
Astronomical Twilight 5:24 AM EDT 10:00 PM EDT
Moon 12:52 AM EDT (8/29) 3:52 PM EDT (8/29)
Length of Visible Light 14h 13m
Length of Day
13h 16m
Last Quarter, 38% of the Moon is Illuminated
Aug 29
Last Quarter
Sep 5
New
Sep 12
First Quarter
Sep 19
Full
Sep 26
Last Quarter

Hourly Weather History & Observations

Time (EDT) Temp. Heat Index Dew Point Humidity Pressure Visibility Wind Dir Wind Speed Gust Speed Precip Events Conditions
12:23 AM 69.8 °F - 66.2 °F 88% 30.04 in 1.8 mi Calm Calm - N/A   Clear
12:31 AM 68.0 °F - 66.2 °F 94% 30.04 in 3.0 mi Calm Calm - N/A   Clear
12:53 AM 68.0 °F - 66.0 °F 93% 30.03 in 8.0 mi NNE 3.5 mph - N/A   Clear
1:19 AM 66.2 °F - 66.2 °F 100% 30.05 in 1.8 mi Calm Calm - N/A   Clear
1:41 AM 66.2 °F - 64.4 °F 94% 30.05 in 0.5 mi Calm Calm - N/A Fog Fog
1:53 AM 68.0 °F - 66.0 °F 93% 30.04 in 0.5 mi Calm Calm - N/A Fog Fog
2:09 AM 68.0 °F - 66.2 °F 94% 30.06 in 0.2 mi Calm Calm - N/A Fog Fog
2:18 AM 66.2 °F - 66.2 °F 100% 30.05 in 0.5 mi Calm Calm - N/A Fog Fog
2:45 AM 68.0 °F - 66.2 °F 94% 30.05 in 2.0 mi Calm Calm - N/A   Clear
2:53 AM 68.0 °F - 66.0 °F 93% 30.04 in 1.0 mi Calm Calm - N/A   Clear
3:00 AM 66.2 °F - 66.2 °F 100% 30.05 in 0.8 mi Calm Calm - N/A   Clear
3:17 AM 66.2 °F - 66.2 °F 100% 30.05 in 2.0 mi Calm Calm - N/A   Clear
3:24 AM 66.2 °F - 64.4 °F 94% 30.05 in 8.0 mi Calm Calm - N/A   Clear
3:53 AM 68.0 °F - 66.0 °F 93% 30.04 in 5.0 mi Calm Calm - 0.01 in   Clear
4:11 AM 66.2 °F - 64.4 °F 94% 30.06 in 2.5 mi Calm Calm - N/A   Clear
4:18 AM 66.2 °F - 64.4 °F 94% 30.05 in 7.0 mi Calm Calm - N/A   Clear
4:43 AM 64.4 °F - 62.6 °F 94% 30.05 in 1.8 mi Calm Calm - N/A   Clear
4:53 AM 64.0 °F - 63.0 °F 96% 30.04 in 0.8 mi Calm Calm - N/A   Clear
5:00 AM 64.4 °F - 62.6 °F 94% 30.05 in 1.0 mi Calm Calm - N/A   Clear
5:11 AM 64.4 °F - 62.6 °F 94% 30.06 in 3.0 mi Calm Calm - N/A   Clear
5:20 AM 64.4 °F - 62.6 °F 94% 30.06 in 1.8 mi Calm Calm - N/A   Clear
5:31 AM 66.2 °F - 64.4 °F 94% 30.06 in 0.8 mi Calm Calm - N/A   Clear
5:36 AM 66.2 °F - 64.4 °F 94% 30.06 in 2.0 mi Calm Calm - N/A   Clear
5:43 AM 64.4 °F - 64.4 °F 100% 30.06 in 3.0 mi Calm Calm - N/A   Clear
5:46 AM 64.4 °F - 62.6 °F 94% 30.07 in 1.5 mi Calm Calm - N/A   Partly Cloudy
5:49 AM 64.4 °F - 62.6 °F 94% 30.07 in 0.8 mi Calm Calm - N/A   Mist
5:53 AM 64.0 °F - 63.0 °F 96% 30.06 in 0.2 mi Calm Calm - N/A Fog Fog
6:02 AM 64.4 °F - 62.6 °F 94% 30.07 in 3.0 mi Calm Calm - N/A   Mist
6:53 AM 64.9 °F - 63.0 °F 93% 30.06 in 3.0 mi Calm Calm - N/A   Clear
7:53 AM 64.9 °F - 64.0 °F 97% 30.08 in 4.0 mi Calm Calm - N/A   Clear
8:53 AM 69.1 °F - 66.0 °F 90% 30.09 in 10.0 mi Calm Calm - N/A   Clear
9:53 AM 73.9 °F - 66.9 °F 79% 30.09 in 10.0 mi Variable 3.5 mph - N/A   Clear
10:53 AM 79.0 °F - 68.0 °F 69% 30.09 in 10.0 mi Variable 3.5 mph - N/A   Clear
11:53 AM 80.1 °F 82.3 °F 66.9 °F 64% 30.10 in 10.0 mi Variable 3.5 mph - N/A   Partly Cloudy
12:53 PM 82.0 °F 84.1 °F 66.0 °F 58% 30.09 in 10.0 mi ESE 3.5 mph - N/A   Partly Cloudy
1:53 PM 84.0 °F 86.5 °F 66.9 °F 56% 30.07 in 10.0 mi Calm Calm - N/A   Partly Cloudy
2:53 PM 84.9 °F 87.1 °F 66.0 °F 53% 30.06 in 10.0 mi Calm Calm - N/A   Partly Cloudy
3:53 PM 87.1 °F 89.2 °F 66.0 °F 49% 30.04 in 10.0 mi Variable 5.8 mph - N/A   Partly Cloudy
4:53 PM 87.1 °F 88.9 °F 64.9 °F 48% 30.04 in 10.0 mi East 4.6 mph - N/A   Scattered Clouds
5:53 PM 86.0 °F 87.6 °F 64.9 °F 49% 30.03 in 10.0 mi Variable 3.5 mph - N/A   Partly Cloudy
6:53 PM 86.0 °F 87.6 °F 64.9 °F 49% 30.02 in 10.0 mi Calm Calm - N/A   Partly Cloudy
7:53 PM 82.0 °F 84.5 °F 66.9 °F 60% 30.03 in 10.0 mi East 3.5 mph - N/A   Partly Cloudy
8:53 PM 78.1 °F - 68.0 °F 71% 30.03 in 10.0 mi Calm Calm - N/A   Clear
9:53 PM 75.9 °F - 68.0 °F 76% 30.03 in 10.0 mi Calm Calm - N/A   Clear
10:53 PM 73.9 °F - 66.9 °F 79% 30.01 in 10.0 mi Calm Calm - N/A   Clear
11:53 PM 73.0 °F - 66.9 °F 81% 30.01 in 10.0 mi Calm Calm - N/A   Partly Cloudy